[[{"header":{"parameterUnit":"m.s-1","parameterCategory":1,"la1":30.2991,"la2":30.254,"lo1":-89.0895,"lo2":-89.0444,"dy":0.0017,"dx":0.0017,"nx":28,"ny":28,"refTime":"2025-03-04T09:00:00:Z","depth":0,"parameterNumber":2,"parameterNumberName":"U-component_of_WINDS"},"data":[0,0,0,0,0,0,0,0,0,0,0,0,0,0,0,0,0,0,0,0,0,0,0,0,0,0,0,0,0,0,0,0,0,0,0,0,0,0,0,0,0,0,0,0,0,0,0,0,0,0,0,0,0,0,0,0,0,0,-5.4149,-5.415,0,-5.4241,-5.4242,-5.4243,-5.4201,-5.4199,-5.4197,-5.4195,-5.4286,-5.4291,-5.4295,0,0,0,0,0,0,0,0,0,0,0,0,0,-5.3937,-5.3941,-5.4149,-5.415,-5.4151,-5.4241,-5.4242,-5.4243,-5.4202,-5.4199,-5.4196,-5.4193,-5.4285,-5.429,-5.4296,0,0,0,0,0,0,0,0,0,0,0,0,0,-5.4029,-5.3942,-5.4149,-5.4141,-5.4142,-5.4241,-5.4242,-5.4244,-5.4202,-5.4199,-5.4195,-5.4192,-5.4283,-5.429,-5.4296,-5.4407,0,0,-5.4317,-5.432,0,0,0,0,0,0,0,0,-5.4024,-5.4037,-5.4141,-5.4142,-5.4143,-5.4206,-5.4201,-5.4299,-5.4203,-5.4179,-5.4194,-5.419,-5.4262,-5.4271,-5.4295,-5.4412,-5.4416,-5.4318,-5.4322,-5.4325,-5.4327,0,0,0,0,0,0,0,-5.4017,-5.4032,-5.4185,-5.4143,-5.4144,-5.4133,-5.4143,-5.4219,-5.4239,-5.4181,-5.4178,-5.419,-5.4262,-5.4289,-5.4297,-5.4417,-5.4318,-5.4324,-5.4328,-5.4331,-5.463,-5.4634,0,0,0,0,0,0,-5.4011,-5.4027,-5.4182,-5.4188,-5.4074,-5.414,-5.415,-5.4189,-5.4238,-5.4242,-5.4193,-5.4187,-5.4279,-5.4289,-5.43,-5.4433,-5.4325,-5.4332,-5.4335,-5.4626,-5.4631,-5.4635,0,0,0,0,0,0,-5.4007,-5.4025,-5.4179,-5.4107,-5.4126,-5.4147,-5.4191,-5.4193,-5.422,-5.4247,-5.425,-5.4216,-5.4276,-5.4291,-5.4381,-5.4435,-5.4335,-5.4341,-5.4622,-5.4628,-5.4633,-5.4699,0,0,0,0,0,0,-5.4001,-5.4024,-5.4066,-5.4108,-5.413,-5.4259,-5.4195,-5.4197,-5.4232,-5.4226,-5.427,-5.4274,-5.4275,-5.4371,-5.4388,-5.4443,-5.4346,-5.4617,-5.4624,-5.4631,-5.4692,-5.4706,-5.4719,0,0,0,0,0,-5.3993,-5.4081,-5.4069,-5.4088,-5.4183,-5.4262,-5.4274,-5.4274,-5.4236,-5.4279,-5.4297,-5.4272,-5.4428,-5.4381,-5.44,-5.4457,-5.4613,-5.4622,-5.4631,-5.4686,-5.4704,-5.4718,0,0,0,0,0,0,-5.4043,-5.4086,-5.4073,-5.4176,-5.4216,-5.4254,-5.4308,-5.4292,-5.4342,-5.4335,-5.4333,-5.4343,-5.4437,-5.4457,-5.4404,-5.4568,-5.4515,-5.4527,-5.4551,-5.4567,-5.458,-5.4572,-5.4352,0,0,0,0,0,-5.4066,-5.4127,-5.4161,-5.4249,-5.427,-5.4286,-5.432,-5.4317,-5.4357,-5.4374,-5.4398,-5.4437,-5.4495,-5.4533,-5.4588,-5.4696,-5.4705,-5.4745,-5.4759,-5.4769,-5.4779,-5.4838,-5.4856,-5.4663,-5.4663,-5.4663,0,0,-5.4114,-5.4145,-5.4183,-5.426,-5.429,-5.4352,-5.43,-5.4368,-5.4414,-5.4384,-5.447,-5.4491,-5.4535,-5.4635,-5.468,-5.4654,-5.4835,-5.478,-5.4789,-5.4793,-5.4849,-5.4867,-5.4883,-5.4669,-5.4668,-5.4667,0,0,-5.4232,-5.4263,-5.4339,-5.4371,-5.4418,-5.4429,-5.4448,-5.449,-5.4502,-5.459,-5.4568,-5.4624,-5.4723,-5.4756,-5.4785,-5.492,-5.4899,-5.4938,-5.5006,-5.5063,-5.5078,-5.5092,-5.5138,-5.5155,-5.4949,-5.4949,-5.4949,0,-5.4285,-5.4378,-5.438,-5.445,-5.4485,-5.4463,-5.454,-5.4571,-5.4633,-5.4657,-5.4628,-5.4754,-5.4782,-5.4889,-5.4923,-5.4948,-5.4969,-5.4931,-5.5076,-5.509,-5.5102,-5.5147,-5.5164,-5.4953,-5.4953,-5.4952,-5.4952,0,-5.444,-5.4506,-5.4562,-5.4624,-5.4665,-5.4739,-5.4752,-5.4793,-5.4789,-5.4802,-5.4893,-5.4927,-5.4988,-5.5014,-5.5009,-5.5122,-5.5104,-5.5076,-5.5022,-5.5125,-5.5166,-5.5184,-5.4959,-5.4958,-5.4957,-5.4956,0,0,-5.4588,-5.4653,-5.4673,-5.4701,-5.4753,-5.4803,-5.4877,-5.4938,-5.4973,-5.5019,-5.5079,-5.5166,-5.5141,-5.5175,-5.5174,-5.5225,-5.5328,-5.5191,-5.5192,-5.5213,-5.5453,-5.5471,-5.5491,-5.5317,-5.532,-5.5323,-5.5449,0,-5.4708,-5.4836,-5.4842,-5.4958,-5.5019,-5.5001,-5.5065,-5.5104,-5.512,-5.5173,-5.5191,-5.5252,-5.5215,-5.5236,-5.5286,-5.5305,-5.5376,-5.5297,-5.5372,-5.5374,-5.5358,-5.5513,-5.5532,-5.5649,-5.5465,-5.5468,-5.547,0,-5.4865,-5.4916,-5.5039,-5.5083,-5.5109,-5.5166,-5.5223,-5.5275,-5.532,-5.5328,-5.5368,-5.536,-5.5435,-5.5382,-5.5485,-5.5431,-5.5463,-5.5478,-5.5483,-5.5487,-5.5426,-5.5519,-5.5687,-5.5703,-5.5496,-5.5494,-5.5492,0,-5.4957,-5.5057,-5.5144,-5.5169,-5.5224,-5.5264,-5.5289,-5.533,-5.5367,-5.5418,-5.5442,-5.5501,-5.5532,-5.5578,-5.5586,-5.5547,-5.569,-5.5637,-5.5697,-5.5697,-5.5724,-5.5722,-5.5897,-5.5751,-5.575,-5.575,-5.575,0,-5.5089,-5.5164,-5.5186,-5.5239,-5.5323,-5.533,-5.5413,-5.5435,-5.5473,-5.5529,-5.5519,-5.5572,-5.5582,-5.5638,-5.5646,-5.5729,-5.5744,-5.5752,-5.5753,-5.5751,-5.575,-5.5769,-5.576,-5.5755,-5.5754,-5.5753,-5.5752,0,-5.5205,-5.5223,-5.5315,-5.5361,-5.5374,-5.5434,-5.5473,-5.5524,-5.5541,-5.5613,-5.563,-5.5656,-5.5721,-5.5736,-5.5813,-5.5819,-5.5917,-5.5911,-5.5902,-5.59,-5.5959,-5.5952,-5.615,-5.6175,-5.6015,-5.6016,-5.6018,0,-5.5286,-5.5344,-5.5396,-5.5434,-5.5461,-5.5522,-5.556,-5.557,-5.561,-5.5667,-5.5711,-5.5776,-5.5827,-5.5933,-5.5958,-5.6018,-5.6011,-5.6077,-5.602,-5.6017,-5.601,-5.6005,-5.601,-5.6086,-5.6088,-5.6089,-5.609,0,-5.5428,-5.5434,-5.549,-5.555,-5.5596,-5.5644,-5.5689,-5.572,-5.5737,-5.5783,-5.585,-5.589,-5.5971,-5.6035,-5.6095,-5.612,-5.6108,-5.6109,-5.6126,-5.6123,-5.6114,-5.6118,-5.5928,-5.6103,-5.6102,-5.6101,-5.61,-5.61,-5.5527,-5.5577,-5.5623,-5.5686,-5.5721,-5.5764,-5.5814,-5.5838,-5.5895,-5.5961,-5.5965,-5.6038,-5.6083,-5.6163,-5.6192,-5.625,-5.6229,-5.6254,-5.6259,-5.6265,-5.6269,-5.6109,-5.6261,-5.6261,-5.626,-5.626,-5.626,0,-5.5666,-5.5695,-5.5753,-5.5817,-5.5867,-5.5854,-5.5904,-5.5946,-5.6011,-5.6055,-5.6107,-5.6185,-5.6248,-5.6279,-5.6342,-5.6382,-5.6378,-5.6397,-5.6393,-5.6399,-5.6284,-5.6263,-5.64,-5.64,-5.64,-5.64,-5.64,-5.64,-5.5744,-5.5829,-5.5841,-5.5944,-5.5973,-5.6045,-5.6074,-5.6114,-5.6149,-5.6237,-5.6289,-5.6311,-5.635,-5.6415,-5.6472,-5.648,-5.6503,-5.6525,-5.653,-5.6421,-5.6407,-5.6393,-5.6372,-5.653,-5.6531,-5.6639,-5.664,-5.6641]},{"header":{"parameterUnit":"m.s-1","parameterCategory":1,"la1":30.2991,"la2":30.254,"lo1":-89.0895,"lo2":-89.0444,"dy":0.0017,"dx":0.0017,"nx":28,"ny":28,"refTime":"2025-03-04T09:00:00:Z","depth":0,"parameterNumber":3,"parameterNumberName":"V-component_of_WINDS"},"data":[0,0,0,0,0,0,0,0,0,0,0,0,0,0,0,0,0,0,0,0,0,0,0,0,0,0,0,0,0,0,0,0,0,0,0,0,0,0,0,0,0,0,0,0,0,0,0,0,0,0,0,0,0,0,0,0,0,0,3.7777,3.7778,0,3.7891,3.7892,3.7893,3.7902,3.79,3.7899,3.7898,3.8011,3.8015,3.8019,0,0,0,0,0,0,0,0,0,0,0,0,0,3.7564,3.7568,3.7777,3.7778,3.778,3.7891,3.7892,3.7894,3.7902,3.79,3.7899,3.7897,3.8009,3.8014,3.8019,0,0,0,0,0,0,0,0,0,0,0,0,0,3.7665,3.7569,3.7776,3.7797,3.78,3.789,3.7892,3.7894,3.7902,3.79,3.7898,3.7897,3.8008,3.8014,3.802,3.8096,0,0,3.8039,3.8042,0,0,0,0,0,0,0,0,3.7659,3.7673,3.7793,3.7796,3.7799,3.788,3.7859,3.7962,3.7903,3.7863,3.7898,3.7896,3.7968,3.7978,3.8003,3.8101,3.8106,3.8039,3.8043,3.8046,3.8048,0,0,0,0,0,0,0,3.7652,3.7668,3.7822,3.7794,3.7798,3.78,3.7812,3.7878,3.7925,3.7866,3.7867,3.7881,3.797,3.7997,3.8006,3.8108,3.8039,3.8045,3.8049,3.8051,3.8278,3.828,0,0,0,0,0,0,3.7642,3.7662,3.7818,3.7825,3.7723,3.7806,3.7819,3.7856,3.7924,3.7933,3.7882,3.7881,3.7987,3.7999,3.801,3.8106,3.8046,3.8052,3.8055,3.8275,3.8278,3.8281,0,0,0,0,0,0,3.7637,3.7656,3.7813,3.7744,3.7764,3.7811,3.7852,3.7859,3.7887,3.7936,3.7944,3.7902,3.7986,3.8001,3.8076,3.811,3.8055,3.806,3.8273,3.8276,3.8279,3.8297,0,0,0,0,0,0,3.7631,3.7654,3.7683,3.7745,3.7768,3.7878,3.7855,3.7863,3.7898,3.7897,3.7957,3.7965,3.7986,3.8066,3.8082,3.8117,3.8065,3.827,3.8274,3.8278,3.8293,3.83,3.8306,0,0,0,0,0,3.7624,3.7682,3.7685,3.7704,3.7806,3.788,3.7893,3.7917,3.79,3.7931,3.7963,3.7963,3.8104,3.8074,3.8091,3.8129,3.8268,3.8273,3.8278,3.829,3.8299,3.8306,0,0,0,0,0,0,3.7621,3.769,3.7694,3.7774,3.7822,3.7881,3.7919,3.7925,3.7976,3.7973,3.8,3.8014,3.8088,3.8116,3.8082,3.8208,3.8184,3.8193,3.8187,3.8196,3.8202,3.8193,3.807,0,0,0,0,0,3.763,3.7685,3.7742,3.7808,3.7831,3.7872,3.7904,3.792,3.7969,3.7988,3.8026,3.8073,3.8128,3.8163,3.8216,3.8298,3.8312,3.8333,3.8339,3.8344,3.8351,3.8399,3.8409,3.8297,3.8297,3.8297,0,0,3.7649,3.7694,3.7726,3.7808,3.7847,3.7903,3.7888,3.7947,3.7989,3.7997,3.807,3.81,3.8154,3.8233,3.827,3.8259,3.8386,3.8351,3.8354,3.8359,3.8405,3.8415,3.8425,3.8301,3.83,3.83,0,0,3.7712,3.7751,3.7811,3.7851,3.791,3.7937,3.7951,3.8011,3.8032,3.8107,3.8115,3.8165,3.8258,3.8298,3.833,3.8412,3.8414,3.8429,3.8462,3.8508,3.8517,3.8525,3.8555,3.8566,3.8436,3.8436,3.8436,0,3.7727,3.7813,3.7841,3.7901,3.7938,3.795,3.8012,3.8048,3.8121,3.8146,3.8133,3.8254,3.8291,3.838,3.8401,3.8426,3.8444,3.8421,3.8514,3.8522,3.853,3.8559,3.8571,3.8437,3.8437,3.8437,3.8437,0,3.783,3.789,3.7931,3.8004,3.8045,3.8105,3.8142,3.8181,3.8194,3.8222,3.83,3.8345,3.8409,3.8432,3.8443,3.8524,3.8516,3.8508,3.8484,3.8541,3.857,3.8581,3.8439,3.8439,3.8438,3.8438,0,0,3.7892,3.7982,3.7997,3.8032,3.81,3.8146,3.8208,3.8273,3.8306,3.8356,3.8409,3.8491,3.8485,3.8522,3.8539,3.8579,3.8644,3.8567,3.8568,3.858,3.8737,3.8743,3.8755,3.8646,3.8648,3.865,3.8733,0,3.7963,3.8075,3.8103,3.8198,3.8255,3.8269,3.8324,3.8371,3.84,3.8452,3.8484,3.8542,3.8529,3.8552,3.8593,3.8627,3.8675,3.8621,3.8695,3.8698,3.8682,3.877,3.8775,3.8851,3.8744,3.8746,3.8747,0,3.806,3.8116,3.8218,3.8282,3.8306,3.8354,3.8418,3.8467,3.8522,3.8541,3.8584,3.8598,3.8663,3.8637,3.8728,3.8691,3.8723,3.8745,3.8749,3.8756,3.8726,3.878,3.8876,3.8887,3.8765,3.8763,3.8762,0,3.8097,3.8197,3.8272,3.8301,3.8376,3.8411,3.8444,3.8497,3.8535,3.8591,3.8616,3.8677,3.8711,3.8758,3.8788,3.8766,3.8878,3.8853,3.8895,3.8895,3.8917,3.8915,3.9019,3.8938,3.8938,3.8937,3.8937,0,3.8173,3.8235,3.829,3.8335,3.8406,3.8438,3.8507,3.854,3.8588,3.8641,3.8657,3.8705,3.8743,3.8797,3.8821,3.8894,3.8908,3.8925,3.8931,3.8924,3.8922,3.8945,3.8941,3.894,3.894,3.8939,3.8939,0,3.8225,3.8264,3.8347,3.8413,3.8432,3.8481,3.8537,3.8583,3.8614,3.868,3.8698,3.8746,3.8811,3.8847,3.8927,3.8944,3.9026,3.9028,3.9007,3.901,3.905,3.9046,3.9173,3.9192,3.9097,3.9098,3.9098,0,3.8271,3.832,3.8393,3.8431,3.8465,3.8524,3.8565,3.86,3.8641,3.8709,3.8747,3.8813,3.8868,3.8971,3.9013,3.9076,3.908,3.912,3.9089,3.9082,3.9082,3.9079,3.9084,3.9125,3.9126,3.9127,3.9127,0,3.835,3.8368,3.8426,3.8492,3.854,3.8593,3.8645,3.8675,3.8719,3.8764,3.8832,3.8875,3.896,3.9026,3.9093,3.9126,3.9135,3.9137,3.9151,3.9144,3.913,3.914,3.9023,3.9134,3.9133,3.9133,3.9132,3.9132,3.8401,3.8446,3.8506,3.8571,3.8614,3.8664,3.8711,3.8749,3.8807,3.888,3.8897,3.8969,3.9025,3.9116,3.9152,3.9209,3.9201,3.9219,3.9224,3.9229,3.9231,3.9122,3.9221,3.9221,3.9221,3.922,3.922,0,3.8482,3.8522,3.8581,3.8656,3.8707,3.8713,3.8773,3.8815,3.8879,3.8932,3.8987,3.9066,3.9131,3.918,3.9247,3.9283,3.9289,3.9299,3.9297,3.9305,3.9233,3.9216,3.9294,3.9294,3.9294,3.9294,3.9294,3.9294,3.8529,3.8606,3.8632,3.8732,3.8771,3.8843,3.8877,3.8923,3.8966,3.9054,3.911,3.9142,3.9193,3.9265,3.9325,3.9338,3.9362,3.9372,3.9385,3.9317,3.9309,3.9302,3.9286,3.9377,3.9377,3.9452,3.9453,3.9453]}]]